Regional Weather Roundup
Issued by NWS

Home | Current Version | Previous Version | Graphics & Text | Print | Product List | Glossary On
Versions: 1 2 3 4 5 6 7 8 9 10 11 12 13 14 15 16 17 18 19 20 21 22 23 24 25 26 27 28 29 30 31 32 33 34 35 36 37 38 39 40 41 42 43 44 45 46 47 48 49 50
000
ASUS43 KIND 020359
RWRIN

WEATHER ROUNDUP FOR INDIANA
NATIONAL WEATHER SERVICE INDIANAPOLIS IN
1200 AM EDT TUE JUN 02 2015

NOTE: "FAIR" INDICATES FEW OR NO CLOUDS BELOW 12,000 FEET WITH NO
SIGNIFICANT WEATHER AND/OR OBSTRUCTIONS TO VISIBILITY.

* - STATION DOES NOT REPORT WEATHER SUCH AS PRECIPITATION OR FOG.

+ - STATION NOT QUALITY CONTROLLED BY THE NATIONAL WEATHER SERVICE.
    USE DATA WITH CAUTION...ESPECIALLY DEWPOINT AND RELATIVE
    HUMIDITY OBSERVATIONS.

INZ001>003-010>013-019-020-020500-
NORTHWEST INDIANA

CITY           SKY/WX    TMP DP  RH WIND       PRES   REMARKS
RENSSELAER +   CLEAR     50  45  81 N7        30.19F

$$

LMZ046-743>745-020500-
SOUTHERN LAKE MICHIGAN

STATION/POSITION TIME  TEMP    WIND        PRES    WAVE
                       AIR SEA DIR/SP/G            HT
                 (UTC) (F)     (DEG/KT/KT) (MB)    (FT)
BURNS HARBOR     0300          360/  4/  5 1023.4F
MICHIGAN CITY    0300   50     350/  5/  5   N/A
5NW MICH CITY    0300   48 54  350/  2/  4   N/A     3

$$

INZ004-005-014>016-021>024-020500-
NORTH CENTRAL INDIANA

CITY           SKY/WX    TMP DP  RH WIND       PRES   REMARKS
GOSHEN         CLEAR     51  47  86 CALM      30.19S
PERU/GRISSOM   CLEAR     53  50  89 E2        30.17F
SOUTH BEND     FAIR      50  44  80 CALM      30.20F

$$

INZ006>009-017-018-025>027-020500-
NORTHEAST INDIANA

CITY           SKY/WX    TMP DP  RH WIND       PRES   REMARKS
ANGOLA *+      CLEAR     48  37  66 CALM      30.20S
FORT WAYNE     PTCLDY    51  48  89 E5        30.20S

$$

INZ028-029-035-036-043>045-051>053-020500-
WEST CENTRAL INDIANA

CITY           SKY/WX    TMP DP  RH WIND       PRES   REMARKS
CRAWFORDSVL +  CLEAR     53  46  79 E7        30.17S
GREENCASTLE +  CLOUDY    55  46  71 E9        30.17F
LAFAYETTE      CLEAR     54  50  86 E7        30.17F
TERRE HAUTE    MOCLDY    57  52  83 NE8       30.15F

$$

INZ030>032-037>040-046>048-054>057-064-065-020500-
CENTRAL INDIANA

CITY           SKY/WX    TMP DP  RH WIND       PRES   REMARKS
GREENWOOD *+   MOCLDY    55  46  71 E6        30.18S
INDIANAPOLIS   MOCLDY    56  47  71 E9        30.16S
-EAGLE CREEK   CLEAR     54  48  80 E6        30.17S
KOKOMO *+      CLEAR     52  48  87 E3        30.18F
MT COMFORT *+  PTCLDY    50 N/A N/A NE5       30.19S
SHELBYVILLE    MOCLDY    56  49  77 NE8       30.17S

$$

INZ033-034-041-042-049-050-058-059-020500-
EAST CENTRAL INDIANA

CITY           SKY/WX    TMP DP  RH WIND       PRES   REMARKS
MUNCIE         MOCLDY    51  47  86 E5        30.18S

$$

INZ060-061-067>069-081>083-085>088-020500-
SOUTHWEST INDIANA

CITY           SKY/WX    TMP DP  RH WIND       PRES   REMARKS
EVANSVILLE     CLOUDY    60  54  80 NE6       30.13S
HUNTINGBURG *+ CLOUDY    59  54  82 NE8       30.13F

$$

INZ062-063-066-070>080-084-089>092-020500-
SOUTH CENTRAL AND SOUTHEAST INDIANA

CITY           SKY/WX    TMP DP  RH WIND       PRES   REMARKS
BLOOMINGTON    CLOUDY    57  51  80 E12       30.15S
MADISON *+     CLOUDY    55  52  88 NE5       30.17R
SEYMOUR +      CLOUDY    59  52  77 NE10      30.15S

$$



USA.gov is the U.S. government's official web portal to all federal, state and local government web resources and services.